Theta_e
315 314 314 315 316 317 317 319 323 326 328 330 330 329 331 334 337 338 338 337 337 337
314 312 314 315 316 317 317 320 322 323 326 325 326 328 331 332 331 334 337 335 336 337
313 313 314 314 315 316 317 319 321 324 323 321 323 327 329 326 328 330 331 334 336 338
312 314 314 314 315 316 317 317 319 320 319 319 321 326 323 324 327 326 326 329 330 331
311 312 313 314 316 316 316 317 319 319 317 319 322 322 321 323 324 321 321 323 326 327
310 310 311 313 315 316 316 317 317 316 316 317 320 321 322 320 320 321 322 323 323 326
309 310 311 313 314 315 315 316 314 315 315 316 318 319 319 318 318 320 320 322 325 326
308 309 310 311 312 313 313 313 314 313 314 315 316 315 316 317 317 317 318 321 323 323
307 307 307 309 311 311 311 312 312 312 313 312 313 307 306 312 315 316 317 317 319 320
308 307 308 309 309 309 310 311 311 312 312 312 312 303 302 305 313 313 313 314 315 315
306 307 308 308 308 309 309 309 310 310 311 312 312 302 301 302 310 311 312 313 314 315
304 304 306 306 307 308 308 308 308 309 310 309 310 301 300 302 310 309 310 312 315 316
301 302 303 304 305 306 305 307 307 307 308 307 309 300 299 302 308 307 308 312 314 305
299 300 301 302 304 304 304 305 304 305 306 306 306 306 297 298 306 307 307 308 309 310
Wind_Speed
7 5 5 5 4 4 3 3 3 3 2 2 3 3 3 1 2 3 2 5 8 5
8 8 7 8 5 4 4 3 4 5 5 4 4 2 2 2 3 3 2 4 3 3
7 8 7 5 6 6 5 5 5 5 4 4 4 4 5 2 3 3 3 3 4 5
8 8 6 6 6 7 5 6 6 6 6 5 5 5 4 4 4 4 3 3 5 6
6 3 4 8 9 8 9 6 9 7 6 6 6 5 5 5 4 4 4 4 4 6
9 7 10 9 9 8 9 9 8 8 8 7 7 6 6 6 5 5 5 4 4 6
9 11 11 12 10 9 11 10 10 10 10 9 8 7 6 6 6 6 5 5 6 6
5 6 7 8 10 10 8 11 11 10 10 10 8 7 9 8 8 7 6 6 7 6
5 6 8 9 10 10 12 12 10 11 11 11 9 13 15 11 8 9 8 8 8 7
6 7 7 6 7 9 11 11 12 12 12 13 12 14 15 15 8 7 8 9 9 9
7 7 7 7 8 7 6 10 10 11 11 11 10 14 14 14 8 7 8 10 11 11
9 10 8 8 9 7 6 8 7 6 11 11 10 13 14 10 6 8 9 9 10 10
12 11 11 11 11 7 7 11 7 9 9 11 11 12 14 12 8 9 7 7 9 13
15 14 13 11 8 9 10 9 9 9 8 10 11 11 16 16 10 9 8 8 8 7
Wind_Direction
177 175 166 175 180 184 190 201 200 164 143 123 83 69 76 146 222 140 142 208 217 221
178 169 184 188 174 175 196 213 203 188 173 169 156 145 108 53 3 15 315 254 266 250
178 189 180 160 191 193 209 208 208 199 199 197 194 179 147 164 210 190 239 252 275 271
210 190 172 190 195 204 195 204 207 212 202 202 199 195 172 201 212 226 235 245 240 255
245 204 209 205 208 204 212 200 212 198 208 207 201 189 192 201 220 231 249 256 276 285
210 206 202 215 224 202 212 216 212 196 210 212 211 196 196 199 213 228 236 249 261 268
219 213 214 213 207 221 209 211 209 207 209 214 213 208 212 208 215 229 234 237 243 248
268 243 221 200 209 208 212 218 215 207 205 208 205 209 212 214 218 220 233 243 252 251
278 256 227 224 217 211 211 213 209 208 210 210 215 209 206 202 208 216 216 225 242 250
288 285 272 247 229 227 217 208 209 213 210 213 211 204 208 215 217 214 216 226 240 249
285 282 285 273 257 236 212 215 208 209 207 211 212 196 207 215 216 224 226 223 231 236
263 267 266 266 266 257 246 238 220 206 207 207 218 200 205 207 220 229 233 230 231 231
273 262 260 258 251 245 235 250 233 229 210 208 216 206 212 212 239 249 244 228 236 220
274 268 263 259 236 231 231 233 222 225 216 217 216 218 210 209 223 236 239 232 243 234